Regional Weather Roundup
Issued by NWS Bismarck, ND

Home | Current Version | Previous Version | Text Only | Print | Product List | Glossary On
Versions: 1 2 3 4 5 6 7 8 9 10 11 12 13 14 15 16 17 18 19 20 21 22 23 24 25 26 27 28 29 30 31 32 33 34 35 36 37 38 39 40 41 42 43 44 45 46 47 48 49 50
000
ASUS43 KBIS 182302
RWRBIS

NWR BROADCAST TEXT
NATIONAL WEATHER SERVICE BISMARCK ND
600 PM CDT MON JUN 18 2018

NOTE: "FAIR" INDICATES FEW OR NO CLOUDS BELOW 12,000 FEET WITH NO
SIGNIFICANT WEATHER AND/OR OBSTRUCTIONS TO VISIBILITY.


CITY           SKY/WX    TMP DP  RH WIND       PRES   REMARKS
WILLISTON      CLOUDY    75  50  41 SE9       30.11F
MINOT          CLOUDY    73  48  41 NE8       30.11F
MINOT AFB      CLOUDY    74  46  36 E12       30.10F
BISMARCK       PTSUNNY   71  48  43 E8        30.09F
DICKINSON      LGT RAIN  65  52  62 SE10      30.11S
GARRISON         N/A     70  51  51 E10       30.11S
HETTINGER ARPT LGT RAIN  58  55  90 SE5       30.14F
JAMESTOWN      CLOUDY    74  48  39 NE12      30.05F
CARRINGTON     FAIR      73  48  40 E12       30.11S
HAZEN          FAIR      72  48  43 SE8G14    30.12S
LINTON         DRIZZLE   64  61  88 E7        30.11S
MANDAN         LGT RAIN  68  50  52 E8        30.10F
OAKES          FAIR      75  54  46 E14       30.04F
RUGBY          FAIR      75  46  35 E13       30.11S
STANLEY          N/A     72  46  40 E8        30.15F
TIOGA          FAIR      72  48  43 E15       30.15S
WATFORD CITY   FAIR      70  50  49 SE13      30.11F
$$

CITY           SKY/WX    TMP DP  RH WIND       PRES   REMARKS
GRAND FORKS    PTSUNNY   79  51  37 NE14      30.05F
GRAND FORKS AF MOSUNNY   78  51  37 NE8       30.06F
DEVILS LAKE    FAIR      74  47  38 E10       30.11F
FARGO          FAIR      77  55  46 NE10      30.02F
CANDO          FAIR      75  46  35 NE8G16    30.13F
CAVALIER       FAIR      79  46  31 NE8       30.09F
GRAFTON        FAIR      79  50  36 N8        30.09F
GWINNER          N/A     75  55  50 NE9       30.02F
LANGDON        FAIR      77  46  33 E13       30.12F
ROLLA          FAIR      75  45  33 NE9       30.14F
WALHALLA       FAIR      79  48  34 NE12      30.09F
$$

CITY           SKY/WX    TMP DP  RH WIND       PRES   REMARKS
ABERDEEN       CLOUDY    75  54  47 NE14      29.99F
MOBRIDGE       CLOUDY    70  57  63 N7        30.04S
BUFFALO          N/A     59  53  80 E14G22    30.06S
RAPID CITY     CLOUDY    56  55  97 N14       30.09F FOG
GLASGOW        CLOUDY    75  48  38 SE16      30.08S
SIDNEY         CLOUDY    70  53  54 SE10      30.10S
WOLF POINT     CLOUDY    76  51  41 E10       30.09F
GLENDIVE       CLOUDY    69  50  50 E15       30.11S
MILES CITY     CLOUDY    62  55  77 SE12      30.08S
BAKER          LGT RAIN  58  55  90 SE16      30.13R
$$

CITY           SKY/WX    TMP DP  RH WIND       PRES   REMARKS
BILLINGS       CLOUDY    58  56  93 E14       30.01R
GREAT FALLS    LGT RAIN  57  54  89 NE18G29   30.05R
$$




USA.gov is the U.S. government's official web portal to all federal, state and local government web resources and services.